Regional Weather Roundup
Issued by NWS

Home | Current Version | Previous Version | Graphics & Text | Print | Product List | Glossary On
Versions: 1 2 3 4 5 6 7 8 9 10 11 12 13 14 15 16 17 18 19 20 21 22 23 24 25 26 27 28 29 30 31 32 33 34 35 36 37 38 39 40 41 42 43 44 45 46 47 48 49 50
000
ASUS43 KFSD 070610
RWRSD

WEATHER ROUNDUP FOR SOUTH DAKOTA
NATIONAL WEATHER SERVICE SIOUX FALLS SD
100 AM CDT TUE JUL 07 2015

NOTE: "FAIR" INDICATES FEW OR NO CLOUDS BELOW 12,000 FEET WITH NO
SIGNIFICANT WEATHER AND/OR OBSTRUCTIONS TO VISIBILITY.


SDZ001>005-009-010-012>017-070700-
NORTHWEST AND NORTH CENTRAL SOUTH DAKOTA

CITY           SKY/WX    TMP DP  RH WIND       PRES   REMARKS
BUFFALO          N/A     54  49  83 E7        30.14R
FAITH            N/A     57  51  80 E9        30.20R
MOBRIDGE       CLEAR     59  55  87 S5        30.18R
$$

SDZ012>016-024>037-041>051-057-063-072>074-070700-
SOUTHWEST AND SOUTH CENTRAL SOUTH DAKOTA

CITY           SKY/WX    TMP DP  RH WIND       PRES   REMARKS
RAPID CTY ARPT MOCLDY    60  57  89 SE3       30.20F
PIERRE         CLEAR     56  54  93 E6        30.16S
CUSTER         CLOUDY    55  49  80 CALM      30.29F
ELLSWORTH AFB  PTCLDY    62  56  83 E5        30.20S
PHILIP         MOCLDY    63  59  87 CALM      30.18S
PINE RIDGE     CLOUDY    61  56  83 CALM      30.22F
SPEARFISH      MOCLDY    57  55  94 E5        30.23S
WINNER         FAIR      60  55  83 CALM      30.18S
$$

SDZ004>011-016>023-039-040-070700-
NORTHEAST SOUTH DAKOTA

CITY           SKY/WX    TMP DP  RH WIND       PRES   REMARKS
ABERDEEN       CLEAR     54  51  90 CALM      30.17S
WATERTOWN      CLEAR     52  50  93 N3        30.16S
BROOKINGS      CLEAR     54  48  82 N6        30.16S
SISSETON         N/A     50  47  89 NW7       30.16R
$$

SDZ017-020-022-023-036>040-048>070-070700-
SOUTHEAST SOUTH DAKOTA

CITY           SKY/WX    TMP DP  RH WIND       PRES   REMARKS
SIOUX FALLS    CLEAR     55  52  89 N5        30.14R
HURON          CLEAR     57  54  89 NE5       30.15R
CHAMBERLAIN    CLEAR     60  56  86 CALM      30.17S FOG
MITCHELL       CLEAR     59  57  93 N3        30.16R FOG
YANKTON        CLEAR     57  54  88 N6        30.13S
$$

ABBREVIATIONS USED IN REMARKS
   TC - TEMPERATURE IN CELSIUS
  WCI - WIND CHILL INDEX
   HX - HEAT INDEX
  VSB - VISIBILITY



USA.gov is the U.S. government's official web portal to all federal, state and local government web resources and services.